User: anonymous   Login
Location: The Jewett Observatory
(46.7288°N, 117.1525°W)
Time: 13:06:45
(UTC-07:00)
Language:

Cosmos 1844 Rocket - Orbit

View from above orbital plane
View from above orbital plane
View from above satellite
View from above satellite

Ground track
Ground track

The orbit data is extracted from the following two-line orbital elements,

1 17974U 87041B   16149.04568881 -.00000227  00000-0 -88556-4 0  9998
2 17974  71.0084   1.2810 0016175 262.6283 249.9661 14.17203052502112
Epoch (UTC): 28 May 2016 01:05:47
Eccentricity: 0.0016175
inclination: 71.0084°
perigee height: 823 km
apogee height: 846 km
right ascension of ascending node: 1.2810°
argument of perigee: 262.6283°
revolutions per day: 14.17203052
mean anomaly at epoch: 249.9661°
orbit number at epoch: 50211

The dashed part of the orbit path shows where the satellite is in the earth's shadow,  

DLR